User: anonymous   Login
Location: Pine Mountain Observatory
(43.7910°N, 120.9377°W)
Time: 14:02:51
(UTC-07:00)
Language:

Vanguard 2 Rocket - Orbit

View from above orbital plane
View from above orbital plane
View from above satellite
View from above satellite

Ground track
Ground track

The orbit data is extracted from the following two-line orbital elements,

1    12U 59001B   19294.90024922  .00000127  00000-0  52574-4 0  9998
2    12  32.9104 109.0757 1667038 256.5200  84.4937 11.44310558495100
Epoch (UTC): 21 October 2019 21:36:21
Eccentricity: 0.1667038
inclination: 32.9104°
perigee height: 553 km
apogee height: 3327 km
right ascension of ascending node: 109.0757°
argument of perigee: 256.5200°
revolutions per day: 11.44310558
mean anomaly at epoch: 84.4937°
orbit number at epoch: 49510

The dashed part of the orbit path shows where the satellite is in the earth's shadow,  

DLR